| time (UTC) | temp F | wind direction | speed knots | gust knots | rain 1hr in | rain 24hr in | rain mn in | humidity % | barometer mb |
| 20260502191044 | 49 | 193 | 0.9 | 0.9 | 0.00 | 0.09 | 0.09 | 83 | 1039.2 |
| 20260502190542 | 49 | 188 | 0.0 | 0.0 | 0.00 | 0.09 | 0.09 | 85 | 1039.5 |
| 20260502190038 | 49 | 188 | 0.9 | 0.9 | 0.00 | 0.09 | 0.09 | 85 | 1039.5 |
| 20260502190002 | 49 | 188 | 0.9 | 1.7 | 0.00 | 0.00 | 0.08 | 85 | 1010.7 |
| 20260502185533 | 49 | 178 | 0.0 | 0.0 | 0.00 | 0.09 | 0.09 | 84 | 1039.3 |
| 20260502185030 | 49 | 197 | 0.9 | 0.9 | 0.00 | 0.09 | 0.09 | 83 | 1039.5 |
| 20260502185002 | 49 | 197 | 0.9 | 1.7 | 0.00 | 0.00 | 0.08 | 83 | 1010.7 |
| 20260502184526 | 49 | 180 | 0.0 | 0.9 | 0.00 | 0.09 | 0.09 | 82 | 1039.3 |
| 20260502184503 | 49 | 180 | 0.9 | 1.7 | 0.00 | 0.00 | 0.08 | 82 | 1010.5 |
| 20260502184022 | 51 | 78 | 0.9 | 1.7 | 0.00 | 0.09 | 0.09 | 79 | 1039.5 |
| 20260502184003 | 51 | 78 | 1.7 | 2.6 | 0.00 | 0.00 | 0.08 | 79 | 1010.7 |
| 20260502183519 | 53 | 237 | 1.7 | 2.6 | 0.00 | 0.09 | 0.09 | 74 | 1039.3 |
| 20260502183502 | 53 | 237 | 1.7 | 3.5 | 0.00 | 0.00 | 0.08 | 74 | 1010.5 |
| 20260502183015 | 54 | 187 | 0.0 | 0.0 | 0.00 | 0.09 | 0.09 | 70 | 1039.2 |
| 20260502182510 | 54 | 187 | 1.7 | 1.7 | 0.00 | 0.09 | 0.09 | 70 | 1039.1 |
| 20260502182502 | 54 | 187 | 2.6 | 2.6 | 0.00 | 0.00 | 0.08 | 70 | 1010.3 |
| 20260502182006 | 53 | 162 | 0.9 | 1.7 | 0.00 | 0.09 | 0.09 | 71 | 1039.3 |
| 20260502182003 | 53 | 162 | 1.7 | 2.6 | 0.00 | 0.00 | 0.08 | 71 | 1010.5 |
| 20260502181504 | 53 | 318 | 1.7 | 1.7 | 0.00 | 0.09 | 0.09 | 70 | 1039.3 |
| 20260502181502 | 53 | 318 | 2.6 | 2.6 | 0.00 | 0.00 | 0.08 | 70 | 1010.5 |
| 20260502181003 | 53 | 196 | 0.0 | 0.0 | 0.00 | 0.00 | 0.08 | 71 | 1010.6 |
| 20260502180502 | 53 | 206 | 2.6 | 3.5 | 0.00 | 0.00 | 0.08 | 70 | 1010.3 |
| 20260502180459 | 53 | 206 | 2.6 | 2.6 | 0.00 | 0.09 | 0.09 | 70 | 1039.1 |
| 20260502170502 | 52 | 190 | 1.7 | 2.6 | 0.00 | 0.00 | 0.08 | 74 | 1011.1 |
| 20260502170418 | 53 | 207 | 1.7 | 1.7 | 0.00 | 0.09 | 0.09 | 73 | 1039.7 |
| 20260502164002 | 51 | 188 | 1.7 | 1.7 | 0.00 | 0.00 | 0.08 | 83 | 1010.8 |
| 20260502163902 | 51 | 169 | 0.9 | 0.9 | 0.00 | 0.09 | 0.09 | 83 | 1039.9 |
| 20260502163502 | 51 | 189 | 1.7 | 2.6 | 0.00 | 0.00 | 0.08 | 83 | 1010.9 |
| 20260502163358 | 50 | 176 | 0.0 | 0.9 | 0.00 | 0.09 | 0.09 | 83 | 1039.9 |
| 20260502163003 | 50 | 183 | 1.7 | 1.7 | 0.00 | 0.00 | 0.08 | 83 | 1011.0 |
| 20260502162856 | 51 | 194 | 0.0 | 0.0 | 0.00 | 0.09 | 0.09 | 83 | 1039.9 |
| 20260502162502 | 50 | 175 | 0.9 | 1.7 | 0.00 | 0.00 | 0.08 | 83 | 1011.0 |
| 20260502162352 | 50 | 165 | 0.9 | 1.7 | 0.00 | 0.09 | 0.09 | 83 | 1039.8 |
| 20260502162002 | 50 | 221 | 0.0 | 0.0 | 0.00 | 0.00 | 0.08 | 84 | 1011.2 |
| 20260502161849 | 50 | 358 | 0.9 | 1.7 | 0.00 | 0.09 | 0.09 | 84 | 1039.8 |
| 20260502161345 | 50 | 180 | 0.9 | 1.7 | 0.00 | 0.09 | 0.09 | 84 | 1040.0 |
| 20260502161003 | 50 | 193 | 0.9 | 1.7 | 0.00 | 0.00 | 0.08 | 84 | 1011.1 |
| 20260502160843 | 50 | 148 | 0.0 | 0.9 | 0.00 | 0.09 | 0.09 | 84 | 1040.0 |
| 20260502160502 | 50 | 78 | 1.7 | 2.6 | 0.00 | 0.00 | 0.08 | 84 | 1011.2 |
| 20260502160342 | 50 | 186 | 0.9 | 1.7 | 0.00 | 0.09 | 0.09 | 84 | 1040.1 |
| 20260502152317 | 49 | 181 | 0.0 | 0.9 | 0.00 | 0.09 | 0.09 | 87 | 1040.6 |
| 20260502152002 | 49 | 154 | 0.0 | 0.0 | 0.00 | 0.00 | 0.08 | 88 | 1011.7 |
| 20260502151814 | 49 | 164 | 0.9 | 0.9 | 0.00 | 0.09 | 0.09 | 88 | 1040.2 |
| 20260502151502 | 49 | 114 | 0.9 | 1.7 | 0.00 | 0.00 | 0.08 | 88 | 1011.6 |
| 20260502151311 | 49 | 180 | 0.9 | 0.9 | 0.00 | 0.09 | 0.09 | 87 | 1040.6 |
| 20260502151003 | 49 | 160 | 0.9 | 1.7 | 0.00 | 0.00 | 0.08 | 88 | 1011.9 |
| 20260502150809 | 49 | 144 | 0.0 | 0.9 | 0.00 | 0.09 | 0.09 | 88 | 1040.3 |
| 20260502150502 | 49 | 192 | 0.9 | 1.7 | 0.00 | 0.00 | 0.08 | 87 | 1011.6 |
| 20260502150305 | 49 | 194 | 0.0 | 0.0 | 0.00 | 0.09 | 0.09 | 87 | 1040.4 |
| 20260502130653 | 46 | 181 | 0.9 | 0.9 | 0.00 | 0.09 | 0.09 | 98 | 1041.5 |
| 20260502130502 | 45 | 180 | 0.9 | 1.7 | 0.00 | 0.00 | 0.08 | 98 | 1012.7 |
| 20260502130151 | 45 | 177 | 0.9 | 0.9 | 0.00 | 0.09 | 0.09 | 98 | 1041.5 |
| 20260502123636 | 45 | 146 | 0.0 | 0.9 | 0.00 | 0.09 | 0.09 | 98 | 1041.5 |
| 20260502123503 | 45 | 129 | 0.0 | 0.0 | 0.00 | 0.00 | 0.08 | 98 | 1012.8 |
| 20260502123133 | 45 | 148 | 0.0 | 0.0 | 0.00 | 0.09 | 0.09 | 99 | 1041.5 |
| 20260502123003 | 45 | 149 | 0.0 | 0.0 | 0.00 | 0.00 | 0.08 | 99 | 1012.7 |
| 20260502122630 | 44 | 151 | 0.0 | 0.0 | 0.00 | 0.09 | 0.09 | 98 | 1041.5 |
| 20260502122502 | 44 | 153 | 0.0 | 0.0 | 0.00 | 0.00 | 0.08 | 98 | 1012.7 |
| 20260502122126 | 44 | 153 | 0.0 | 0.0 | 0.00 | 0.09 | 0.09 | 98 | 1041.3 |
| 20260502122003 | 44 | 153 | 0.0 | 0.0 | 0.00 | 0.00 | 0.08 | 98 | 1012.6 |
| 20260502121624 | 44 | 166 | 0.0 | 0.0 | 0.00 | 0.09 | 0.09 | 98 | 1041.4 |
| 20260502121503 | 44 | 166 | 0.0 | 0.0 | 0.00 | 0.00 | 0.08 | 98 | 1012.5 |
| 20260502121121 | 44 | 166 | 0.0 | 0.0 | 0.00 | 0.09 | 0.09 | 98 | 1041.7 |
| 20260502120618 | 44 | 166 | 0.0 | 0.0 | 0.05 | 0.09 | 0.09 | 98 | 1041.4 |
| 20260502120115 | 44 | 164 | 0.0 | 0.0 | 0.05 | 0.08 | 0.08 | 98 | 1041.4 |
| 20260502115613 | 44 | 337 | 0.9 | 0.9 | 0.12 | 0.08 | 0.08 | 98 | 1041.4 |
| 20260502115503 | 44 | 58 | 0.9 | 1.7 | 0.11 | 0.00 | 0.07 | 98 | 1012.4 |
| 20260502115108 | 44 | 168 | 0.0 | 0.0 | 0.07 | 0.07 | 0.07 | 98 | 1041.2 |
| 20260502115002 | 44 | 168 | 0.0 | 0.0 | 0.07 | 0.00 | 0.07 | 98 | 1012.4 |
| 20260502114605 | 44 | 169 | 0.0 | 0.9 | 0.00 | 0.06 | 0.06 | 98 | 1041.3 |
| 20260502114102 | 44 | 267 | 0.0 | 0.0 | 0.00 | 0.06 | 0.06 | 98 | 1041.4 |
| 20260502114002 | 44 | 290 | 0.0 | 0.0 | 0.00 | 0.00 | 0.05 | 98 | 1012.5 |
| 20260502113559 | 44 | 200 | 0.0 | 0.0 | 0.00 | 0.06 | 0.06 | 98 | 1041.2 |
| 20260502113058 | 44 | 28 | 0.0 | 0.0 | 0.00 | 0.06 | 0.06 | 98 | 1040.9 |
| 20260502113002 | 44 | 27 | 0.0 | 0.0 | 0.00 | 0.00 | 0.05 | 98 | 1011.9 |
| 20260502112555 | 44 | 214 | 0.9 | 0.9 | 0.05 | 0.06 | 0.06 | 98 | 1040.9 |
| 20260502112502 | 44 | 188 | 0.0 | 0.0 | 0.04 | 0.00 | 0.05 | 98 | 1012.3 |
| 20260502112053 | 44 | 188 | 0.0 | 0.0 | 0.09 | 0.06 | 0.06 | 98 | 1041.2 |
| 20260502112003 | 44 | 255 | 0.9 | 1.7 | 0.09 | 0.00 | 0.05 | 98 | 1012.0 |
| 20260502111550 | 44 | 351 | 0.0 | 0.9 | 0.05 | 0.05 | 0.05 | 98 | 1041.4 |
| 20260502111502 | 44 | 223 | 0.0 | 0.0 | 0.04 | 0.00 | 0.05 | 98 | 1012.7 |
| 20260502111047 | 44 | 12 | 0.0 | 0.9 | 0.05 | 0.04 | 0.04 | 98 | 1041.5 |
| 20260502111002 | 44 | 216 | 0.9 | 1.7 | 0.04 | 0.00 | 0.04 | 98 | 1012.9 |
| 20260502110544 | 44 | 235 | 0.9 | 0.9 | 0.12 | 0.04 | 0.04 | 98 | 1041.3 |
| 20260502110042 | 45 | 182 | 0.0 | 0.0 | 0.12 | 0.04 | 0.04 | 98 | 1041.2 |
| 20260502110003 | 45 | 182 | 0.0 | 0.0 | 0.11 | 0.00 | 0.03 | 98 | 1012.4 |
| 20260502105539 | 45 | 182 | 0.0 | 0.0 | 0.00 | 0.02 | 0.02 | 97 | 1040.9 |
| 20260502105502 | 45 | 182 | 0.0 | 0.0 | 0.00 | 0.00 | 0.01 | 97 | 1012.1 |
| 20260502105037 | 45 | 182 | 0.0 | 0.0 | 0.00 | 0.02 | 0.02 | 97 | 1041.2 |
| 20260502105002 | 45 | 182 | 0.0 | 0.0 | 0.00 | 0.00 | 0.01 | 97 | 1012.4 |
| 20260502104533 | 44 | 182 | 0.0 | 0.0 | 0.05 | 0.02 | 0.02 | 97 | 1040.7 |
| 20260502104503 | 44 | 182 | 0.0 | 0.0 | 0.04 | 0.00 | 0.01 | 97 | 1011.9 |
| 20260502104031 | 44 | 182 | 0.0 | 0.0 | 0.05 | 0.02 | 0.02 | 97 | 1040.4 |
| 20260502103529 | 44 | 182 | 0.0 | 0.0 | 0.00 | 0.01 | 0.01 | 96 | 1040.3 |
| 20260502103503 | 44 | 182 | 0.0 | 0.0 | 0.00 | 0.00 | 0.00 | 96 | 1011.5 |
| 20260502103027 | 44 | 182 | 0.0 | 0.0 | 0.00 | 0.01 | 0.01 | 96 | 1040.6 |
| 20260502103003 | 44 | 182 | 0.0 | 0.0 | 0.00 | 0.00 | 0.00 | 96 | 1011.8 |
| 20260502102523 | 44 | 182 | 0.9 | 0.9 | 0.00 | 0.01 | 0.01 | 96 | 1040.6 |
| 20260502102503 | 44 | 182 | 0.9 | 1.7 | 0.00 | 0.00 | 0.00 | 96 | 1011.8 |
| 20260502102020 | 44 | 182 | 0.0 | 0.0 | 0.00 | 0.01 | 0.01 | 95 | 1040.5 |
| 20260502101518 | 44 | 182 | 0.0 | 0.0 | 0.00 | 0.01 | 0.01 | 95 | 1040.5 |
| 20260502101503 | 44 | 182 | 0.0 | 0.0 | 0.00 | 0.00 | 0.00 | 95 | 1011.7 |
| 20260502101016 | 44 | 182 | 0.0 | 0.0 | 0.00 | 0.01 | 0.01 | 95 | 1040.4 |
| 20260502101002 | 44 | 182 | 0.0 | 0.0 | 0.00 | 0.00 | 0.00 | 95 | 1011.6 |
| 20260502100514 | 44 | 182 | 0.0 | 0.0 | 0.00 | 0.01 | 0.01 | 95 | 1040.3 |
| 20260502100502 | 44 | 182 | 0.0 | 0.0 | 0.00 | 0.00 | 0.00 | 95 | 1011.5 |
| 20260502091449 | 44 | 161 | 0.0 | 0.0 | 0.00 | 0.01 | 0.01 | 91 | 1040.5 |
| 20260502091003 | 44 | 200 | 0.0 | 0.0 | 0.04 | 0.00 | 0.00 | 90 | 1011.4 |
| 20260502090946 | 44 | 200 | 0.0 | 0.0 | 0.05 | 0.01 | 0.01 | 90 | 1040.2 |
| 20260502090502 | 44 | 153 | 0.9 | 1.7 | 0.04 | 0.00 | 0.00 | 90 | 1011.6 |
| 20260502090443 | 44 | 175 | 0.0 | 0.0 | 0.05 | 0.01 | 0.01 | 90 | 1040.3 |
| 20260502071337 | 45 | 224 | 0.0 | 0.0 | 0.00 | 0.00 | 0.00 | 80 | 1040.5 |
| 20260502071003 | 45 | 224 | 0.9 | 1.7 | 0.00 | 0.00 | 0.00 | 79 | 1011.6 |
| 20260502070835 | 45 | 235 | 0.9 | 0.9 | 0.00 | 0.00 | 0.00 | 79 | 1040.2 |
| 20260502070502 | 46 | 250 | 0.0 | 0.0 | 0.00 | 0.00 | 0.00 | 79 | 1011.4 |
| 20260502070333 | 46 | 250 | 0.0 | 0.0 | 0.00 | 0.00 | 0.00 | 79 | 1040.1 |
| 20260502070003 | 46 | 250 | 0.0 | 0.0 | 0.00 | 0.00 | 0.00 | 78 | 1011.4 |
| 20260502065831 | 46 | 251 | 0.0 | 0.0 | 0.00 | 0.00 | 0.00 | 78 | 1040.5 |
| 20260502065502 | 47 | 272 | 0.0 | 0.0 | 0.00 | 0.00 | 0.00 | 78 | 1011.7 |
| 20260502065329 | 47 | 335 | 0.9 | 0.9 | 0.00 | 0.00 | 0.00 | 77 | 1040.5 |
| 20260502065003 | 47 | 24 | 0.9 | 1.7 | 0.00 | 0.00 | 0.00 | 77 | 1011.4 |
| 20260502064827 | 47 | 15 | 0.0 | 0.0 | 0.00 | 0.00 | 0.00 | 76 | 1040.5 |
| 20260502064503 | 47 | 13 | 0.9 | 1.7 | 0.00 | 0.00 | 0.00 | 74 | 1011.6 |
| 20260502064325 | 47 | 16 | 0.0 | 0.9 | 0.00 | 0.00 | 0.00 | 75 | 1040.5 |
| 20260502064002 | 46 | 14 | 1.7 | 1.7 | 0.00 | 0.00 | 0.00 | 75 | 1011.5 |
| 20260502063822 | 46 | 244 | 0.0 | 0.9 | 0.00 | 0.00 | 0.00 | 74 | 1040.4 |
| 20260502063320 | 46 | 244 | 0.0 | 0.0 | 0.00 | 0.00 | 0.00 | 74 | 1040.7 |
| 20260502063002 | 46 | 244 | 0.0 | 0.0 | 0.00 | 0.00 | 0.00 | 74 | 1011.9 |
| 20260502062816 | 46 | 244 | 0.0 | 0.0 | 0.00 | 0.00 | 0.00 | 73 | 1040.5 |
| 20260502062502 | 46 | 244 | 0.0 | 0.0 | 0.00 | 0.00 | 0.00 | 72 | 1011.8 |
| 20260502062314 | 46 | 244 | 0.0 | 0.0 | 0.00 | 0.00 | 0.00 | 73 | 1040.2 |
| 20260502062002 | 46 | 244 | 0.9 | 1.7 | 0.00 | 0.00 | 0.00 | 72 | 1011.7 |
| 20260502061813 | 46 | 244 | 0.0 | 0.0 | 0.00 | 0.00 | 0.00 | 74 | 1040.6 |
| 20260502061502 | 45 | 244 | 0.0 | 0.0 | 0.00 | 0.00 | 0.00 | 74 | 1012.0 |
| 20260502061310 | 45 | 244 | 0.0 | 0.0 | 0.00 | 0.00 | 0.00 | 74 | 1041.0 |
| 20260502061003 | 44 | 242 | 0.0 | 0.0 | 0.00 | 0.00 | 0.00 | 74 | 1012.1 |
| 20260502060805 | 44 | 242 | 0.0 | 0.0 | 0.00 | 0.00 | 0.00 | 74 | 1040.7 |
| 20260502060502 | 44 | 242 | 0.0 | 0.0 | 0.00 | 0.00 | 0.00 | 74 | 1011.9 |
| 20260502060301 | 44 | 242 | 0.0 | 0.0 | 0.00 | 0.00 | 0.00 | 74 | 1040.6 |
| 20260502060002 | 44 | 243 | 0.9 | 1.7 | 0.00 | 0.00 | 0.00 | 74 | 1011.8 |
| 20260502055759 | 44 | 244 | 0.0 | 0.0 | 0.00 | 0.00 | 0.00 | 74 | 1040.7 |
| 20260502055256 | 44 | 244 | 0.0 | 0.0 | 0.00 | 0.00 | 0.00 | 72 | 1040.5 |
| 20260502054755 | 44 | 244 | 0.0 | 0.0 | 0.00 | 0.00 | 0.00 | 72 | 1040.7 |
| 20260502054502 | 44 | 246 | 0.0 | 0.0 | 0.00 | 0.00 | 0.00 | 72 | 1011.9 |
| 20260502054253 | 44 | 197 | 0.9 | 0.9 | 0.00 | 0.00 | 0.00 | 72 | 1040.5 |
| 20260502054003 | 44 | 196 | 0.9 | 1.7 | 0.00 | 0.00 | 0.00 | 72 | 1011.8 |
| 20260502053750 | 44 | 196 | 0.9 | 0.9 | 0.00 | 0.00 | 0.00 | 72 | 1040.4 |
| 20260502053503 | 44 | 174 | 0.0 | 0.0 | 0.00 | 0.00 | 0.00 | 72 | 1011.5 |
| 20260502053247 | 44 | 173 | 0.0 | 0.0 | 0.00 | 0.00 | 0.00 | 70 | 1040.2 |
| 20260502053002 | 44 | 174 | 0.0 | 0.0 | 0.00 | 0.00 | 0.00 | 71 | 1011.6 |
| 20260502052745 | 44 | 174 | 0.0 | 0.0 | 0.00 | 0.00 | 0.00 | 72 | 1040.4 |
| 20260502052502 | 44 | 173 | 1.7 | 1.7 | 0.00 | 0.00 | 0.00 | 71 | 1011.5 |
| 20260502052243 | 44 | 103 | 0.0 | 0.0 | 0.00 | 0.00 | 0.00 | 70 | 1040.4 |
| 20260502052003 | 44 | 169 | 0.0 | 0.0 | 0.00 | 0.00 | 0.00 | 70 | 1011.7 |
| 20260502051740 | 44 | 170 | 0.0 | 0.0 | 0.00 | 0.00 | 0.00 | 70 | 1040.5 |
| 20260502051503 | 44 | 170 | 0.0 | 0.0 | 0.00 | 0.00 | 0.00 | 70 | 1011.9 |
| 20260502051239 | 44 | 170 | 0.0 | 0.0 | 0.00 | 0.00 | 0.00 | 71 | 1040.6 |
| 20260502050735 | 44 | 170 | 0.0 | 0.0 | 0.00 | 0.00 | 0.00 | 71 | 1040.7 |
| 20260502050502 | 44 | 170 | 0.0 | 0.0 | 0.00 | 0.00 | 0.00 | 71 | 1011.6 |
| 20260502050231 | 44 | 169 | 0.0 | 0.0 | 0.00 | 0.00 | 0.00 | 70 | 1040.6 |
| 20260502050003 | 44 | 169 | 0.0 | 0.0 | 0.00 | 0.00 | 0.00 | 71 | 1011.9 |
| 20260502045728 | 44 | 170 | 0.0 | 0.0 | 0.00 | 0.00 | 0.00 | 70 | 1040.8 |
| 20260502045225 | 44 | 170 | 0.0 | 0.9 | 0.00 | 0.00 | 0.00 | 69 | 1040.5 |
| 20260502045002 | 44 | 170 | 0.0 | 0.0 | 0.00 | 0.00 | 0.00 | 69 | 1011.7 |
| 20260502044722 | 43 | 170 | 0.0 | 0.0 | 0.00 | 0.00 | 0.00 | 69 | 1040.5 |
| 20260502044503 | 43 | 170 | 0.0 | 0.0 | 0.00 | 0.00 | 0.00 | 69 | 1011.8 |
| 20260502044218 | 43 | 170 | 0.0 | 0.0 | 0.00 | 0.00 | 0.00 | 70 | 1040.6 |
| 20260502044002 | 43 | 170 | 0.0 | 0.0 | 0.00 | 0.00 | 0.00 | 71 | 1011.6 |
| 20260502043716 | 43 | 170 | 0.0 | 0.0 | 0.00 | 0.00 | 0.00 | 71 | 1040.4 |
| 20260502043214 | 43 | 170 | 0.0 | 0.0 | 0.00 | 0.00 | 0.00 | 71 | 1040.6 |
| 20260502043002 | 44 | 170 | 0.0 | 0.0 | 0.00 | 0.00 | 0.00 | 71 | 1011.7 |
| 20260502042712 | 44 | 170 | 0.0 | 0.0 | 0.00 | 0.00 | 0.00 | 71 | 1040.6 |
| 20260502042503 | 44 | 170 | 0.0 | 0.0 | 0.00 | 0.00 | 0.00 | 72 | 1011.7 |
| 20260502042210 | 44 | 170 | 0.0 | 0.9 | 0.00 | 0.00 | 0.00 | 72 | 1040.6 |
| 20260502042002 | 44 | 170 | 0.9 | 1.7 | 0.00 | 0.00 | 0.00 | 72 | 1011.7 |
| 20260502041708 | 44 | 170 | 0.0 | 0.0 | 0.00 | 0.00 | 0.00 | 71 | 1040.6 |
| 20260502041502 | 44 | 170 | 0.9 | 1.7 | 0.00 | 0.00 | 0.00 | 71 | 1011.7 |
| 20260502041204 | 44 | 169 | 0.0 | 0.0 | 0.00 | 0.00 | 0.00 | 71 | 1040.6 |
| 20260502041003 | 44 | 169 | 0.0 | 0.0 | 0.00 | 0.00 | 0.00 | 71 | 1011.8 |
| 20260502040701 | 44 | 170 | 0.0 | 0.0 | 0.00 | 0.00 | 0.00 | 71 | 1040.7 |
| 20260502040502 | 44 | 170 | 0.0 | 0.0 | 0.00 | 0.00 | 0.00 | 72 | 1012.0 |
| 20260502040159 | 44 | 170 | 0.0 | 0.0 | 0.00 | 0.00 | 0.00 | 69 | 1040.7 |
| 20260502040002 | 44 | 170 | 0.0 | 0.0 | 0.00 | 0.00 | 0.00 | 69 | 1012.0 |
| 20260502035655 | 44 | 170 | 0.0 | 0.0 | 0.00 | 0.00 | 0.00 | 69 | 1040.9 |
| 20260502035503 | 44 | 170 | 0.0 | 0.0 | 0.00 | 0.00 | 0.00 | 68 | 1012.1 |
| 20260502035151 | 44 | 170 | 0.0 | 0.0 | 0.00 | 0.00 | 0.00 | 68 | 1040.9 |
| 20260502035003 | 44 | 170 | 0.0 | 0.0 | 0.00 | 0.00 | 0.00 | 68 | 1011.9 |
| 20260502034649 | 44 | 170 | 0.0 | 0.0 | 0.00 | 0.00 | 0.00 | 68 | 1040.8 |
| 20260502034502 | 44 | 170 | 0.0 | 0.0 | 0.00 | 0.00 | 0.00 | 68 | 1011.8 |
| 20260502034148 | 44 | 170 | 0.0 | 0.0 | 0.00 | 0.00 | 0.00 | 67 | 1040.7 |
| 20260502033645 | 44 | 170 | 0.0 | 0.0 | 0.00 | 0.00 | 0.00 | 67 | 1040.8 |
| 20260502033503 | 44 | 170 | 0.0 | 0.0 | 0.00 | 0.00 | 0.00 | 68 | 1011.9 |
| 20260502033143 | 44 | 170 | 0.0 | 0.0 | 0.00 | 0.00 | 0.00 | 68 | 1040.8 |
| 20260502033002 | 44 | 170 | 0.0 | 0.0 | 0.00 | 0.00 | 0.00 | 69 | 1012.0 |
| 20260502032639 | 44 | 170 | 0.0 | 0.0 | 0.00 | 0.00 | 0.00 | 70 | 1040.8 |
| 20260502032502 | 44 | 170 | 0.0 | 0.0 | 0.00 | 0.00 | 0.00 | 70 | 1012.0 |
| 20260502032135 | 44 | 170 | 0.0 | 0.0 | 0.00 | 0.00 | 0.00 | 71 | 1040.8 |
| 20260502032003 | 44 | 170 | 0.0 | 0.0 | 0.00 | 0.00 | 0.00 | 71 | 1012.0 |
| 20260502031633 | 44 | 170 | 0.0 | 0.0 | 0.00 | 0.00 | 0.00 | 71 | 1040.8 |
| 20260502031502 | 44 | 170 | 0.0 | 0.0 | 0.00 | 0.00 | 0.00 | 71 | 1012.1 |
| 20260502031131 | 44 | 170 | 0.0 | 0.0 | 0.00 | 0.00 | 0.00 | 71 | 1040.9 |
| 20260502031002 | 44 | 170 | 0.9 | 1.7 | 0.00 | 0.00 | 0.00 | 70 | 1012.0 |
| 20260502030629 | 44 | 170 | 0.0 | 0.9 | 0.00 | 0.00 | 0.00 | 70 | 1040.7 |
| 20260502030503 | 44 | 170 | 0.0 | 0.0 | 0.00 | 0.00 | 0.00 | 70 | 1011.9 |
| 20260502030127 | 44 | 170 | 0.0 | 0.0 | 0.00 | 0.00 | 0.00 | 70 | 1040.7 |
| 20260502030002 | 44 | 170 | 0.0 | 0.0 | 0.00 | 0.00 | 0.00 | 70 | 1011.7 |
| 20260502025624 | 44 | 170 | 0.0 | 0.0 | 0.00 | 0.00 | 0.00 | 70 | 1040.7 |
| 20260502025503 | 44 | 170 | 0.0 | 0.0 | 0.00 | 0.00 | 0.00 | 70 | 1011.9 |
| 20260502025122 | 44 | 170 | 0.0 | 0.0 | 0.00 | 0.00 | 0.00 | 69 | 1040.7 |
| 20260502025002 | 44 | 170 | 0.0 | 0.0 | 0.00 | 0.00 | 0.00 | 70 | 1011.7 |
| 20260502024620 | 44 | 170 | 0.0 | 0.0 | 0.00 | 0.00 | 0.00 | 69 | 1040.5 |
| 20260502024502 | 44 | 170 | 0.0 | 0.0 | 0.00 | 0.00 | 0.00 | 69 | 1011.8 |
| 20260502024117 | 44 | 170 | 0.0 | 0.0 | 0.00 | 0.00 | 0.00 | 69 | 1040.5 |
| 20260502024003 | 44 | 170 | 0.0 | 0.0 | 0.00 | 0.00 | 0.00 | 69 | 1011.7 |
| 20260502023615 | 44 | 170 | 0.0 | 0.0 | 0.00 | 0.00 | 0.00 | 68 | 1040.4 |
| 20260502023112 | 43 | 170 | 0.0 | 0.0 | 0.00 | 0.00 | 0.00 | 69 | 1040.4 |
| 20260502023003 | 43 | 170 | 0.0 | 0.0 | 0.00 | 0.00 | 0.00 | 69 | 1011.7 |
| 20260502022609 | 43 | 170 | 0.0 | 0.0 | 0.00 | 0.00 | 0.00 | 69 | 1040.6 |
| 20260502022502 | 43 | 170 | 0.0 | 0.0 | 0.00 | 0.00 | 0.00 | 70 | 1011.6 |
| 20260502022106 | 43 | 170 | 0.0 | 0.0 | 0.00 | 0.00 | 0.00 | 69 | 1040.6 |
| 20260502022002 | 43 | 170 | 0.0 | 0.0 | 0.00 | 0.00 | 0.00 | 69 | 1011.6 |
| 20260502021603 | 43 | 170 | 0.0 | 0.0 | 0.00 | 0.00 | 0.00 | 69 | 1040.6 |
| 20260502021503 | 43 | 170 | 0.0 | 0.0 | 0.00 | 0.00 | 0.00 | 68 | 1011.6 |
| 20260502021100 | 43 | 170 | 0.0 | 0.0 | 0.00 | 0.00 | 0.00 | 69 | 1040.5 |
| 20260502021002 | 43 | 170 | 0.0 | 0.0 | 0.00 | 0.00 | 0.00 | 69 | 1011.9 |
| 20260502020557 | 43 | 170 | 0.0 | 0.0 | 0.00 | 0.00 | 0.00 | 70 | 1040.6 |
| 20260502020502 | 43 | 170 | 0.0 | 0.0 | 0.00 | 0.00 | 0.00 | 69 | 1011.8 |
| 20260502020054 | 43 | 170 | 0.0 | 0.0 | 0.00 | 0.00 | 0.00 | 69 | 1040.4 |
| 20260502020003 | 43 | 170 | 0.0 | 0.0 | 0.00 | 0.00 | 0.00 | 69 | 1011.7 |
| 20260502015552 | 43 | 170 | 0.0 | 0.0 | 0.00 | 0.00 | 0.00 | 69 | 1040.3 |
| 20260502015503 | 43 | 170 | 0.0 | 0.0 | 0.00 | 0.00 | 0.00 | 69 | 1011.6 |
| 20260502015048 | 43 | 170 | 0.0 | 0.0 | 0.00 | 0.00 | 0.00 | 68 | 1040.5 |
| 20260502015003 | 43 | 170 | 0.0 | 0.0 | 0.00 | 0.00 | 0.00 | 68 | 1011.7 |
| 20260502014545 | 43 | 170 | 0.0 | 0.0 | 0.00 | 0.00 | 0.00 | 67 | 1040.7 |
| 20260502014502 | 43 | 170 | 0.0 | 0.0 | 0.00 | 0.00 | 0.00 | 67 | 1011.8 |
| 20260502014043 | 43 | 170 | 0.0 | 0.0 | 0.00 | 0.00 | 0.00 | 67 | 1040.5 |
| 20260502014002 | 43 | 170 | 0.0 | 0.0 | 0.00 | 0.00 | 0.00 | 67 | 1011.7 |
| 20260502013538 | 43 | 170 | 0.0 | 0.0 | 0.00 | 0.00 | 0.00 | 67 | 1040.3 |
| 20260502013503 | 43 | 170 | 0.0 | 0.0 | 0.00 | 0.00 | 0.00 | 67 | 1011.5 |
| 20260502013034 | 44 | 170 | 0.0 | 0.0 | 0.00 | 0.00 | 0.00 | 66 | 1040.5 |
| 20260502013003 | 44 | 170 | 0.0 | 0.0 | 0.00 | 0.00 | 0.00 | 66 | 1011.7 |
| 20260502012532 | 44 | 170 | 0.0 | 0.0 | 0.00 | 0.00 | 0.00 | 65 | 1040.3 |
| 20260502012029 | 44 | 170 | 0.0 | 0.0 | 0.00 | 0.00 | 0.00 | 65 | 1040.6 |
| 20260502011526 | 44 | 169 | 0.0 | 0.0 | 0.00 | 0.00 | 0.00 | 65 | 1040.4 |
| 20260502011022 | 45 | 170 | 0.0 | 0.0 | 0.00 | 0.00 | 0.00 | 62 | 1040.3 |
| 20260502011002 | 45 | 170 | 0.0 | 0.0 | 0.00 | 0.00 | 0.00 | 62 | 1011.5 |
| 20260502010520 | 45 | 170 | 0.0 | 0.0 | 0.00 | 0.00 | 0.00 | 61 | 1040.4 |
| 20260502010503 | 45 | 170 | 0.0 | 0.0 | 0.00 | 0.00 | 0.00 | 61 | 1011.6 |
| 20260502010016 | 45 | 169 | 0.9 | 0.9 | 0.00 | 0.00 | 0.00 | 61 | 1040.1 |
| 20260502010002 | 45 | 169 | 0.9 | 1.7 | 0.00 | 0.00 | 0.00 | 61 | 1011.3 |
| 20260502005514 | 46 | 166 | 0.0 | 0.0 | 0.00 | 0.00 | 0.00 | 60 | 1040.1 |
| 20260502005503 | 46 | 166 | 0.0 | 0.0 | 0.00 | 0.00 | 0.00 | 60 | 1011.3 |
| 20260502005012 | 46 | 166 | 0.0 | 0.0 | 0.00 | 0.00 | 0.00 | 59 | 1040.1 |
| 20260502005002 | 46 | 166 | 0.0 | 0.0 | 0.00 | 0.00 | 0.00 | 59 | 1011.3 |
| 20260502004507 | 46 | 166 | 0.0 | 0.0 | 0.00 | 0.00 | 0.00 | 59 | 1040.0 |
| 20260502004004 | 47 | 166 | 0.0 | 0.0 | 0.00 | 0.00 | 0.00 | 57 | 1039.9 |
| 20260502004002 | 47 | 166 | 0.0 | 0.0 | 0.00 | 0.00 | 0.00 | 57 | 1011.1 |
| 20260502003502 | 47 | 166 | 0.0 | 0.0 | 0.00 | 0.00 | 0.00 | 56 | 1011.1 |
| 20260502002957 | 48 | 166 | 0.0 | 0.0 | 0.00 | 0.00 | 0.00 | 55 | 1039.9 |
| 20260502002455 | 48 | 166 | 0.0 | 0.0 | 0.00 | 0.00 | 0.00 | 57 | 1039.8 |
| 20260502002002 | 49 | 166 | 0.0 | 0.0 | 0.00 | 0.00 | 0.00 | 54 | 1011.0 |
| 20260502001952 | 49 | 166 | 0.0 | 0.0 | 0.00 | 0.00 | 0.00 | 54 | 1039.8 |
| 20260502001502 | 49 | 166 | 0.0 | 0.0 | 0.00 | 0.00 | 0.00 | 53 | 1010.9 |
| 20260502001449 | 49 | 166 | 0.0 | 0.0 | 0.00 | 0.00 | 0.00 | 53 | 1039.7 |
| 20260502001003 | 49 | 166 | 0.9 | 1.7 | 0.00 | 0.00 | 0.00 | 53 | 1010.7 |
| 20260502000948 | 49 | 166 | 0.0 | 0.9 | 0.00 | 0.00 | 0.00 | 53 | 1039.5 |
| 20260502000502 | 50 | 166 | 0.0 | 0.0 | 0.00 | 0.00 | 0.00 | 53 | 1010.5 |
| 20260502000447 | 50 | 166 | 0.0 | 0.0 | 0.00 | 0.00 | 0.00 | 53 | 1039.3 |
| 20260502000003 | 50 | 166 | 0.9 | 1.7 | 0.00 | 0.00 | 0.00 | 53 | 1010.7 |
| 20260501235941 | 50 | 166 | 0.0 | 0.9 | 0.00 | 0.00 | 0.00 | 53 | 1039.3 |
| 20260501235502 | 51 | 166 | 0.9 | 1.7 | 0.00 | 0.00 | 0.00 | 53 | 1010.6 |
| 20260501235437 | 51 | 166 | 0.0 | 0.0 | 0.00 | 0.00 | 0.00 | 53 | 1039.2 |
| 20260501235002 | 51 | 166 | 0.0 | 0.0 | 0.00 | 0.00 | 0.00 | 52 | 1010.3 |
| 20260501234932 | 51 | 166 | 0.0 | 0.9 | 0.00 | 0.00 | 0.00 | 53 | 1039.4 |
| 20260501234503 | 52 | 159 | 0.0 | 0.0 | 0.00 | 0.00 | 0.00 | 50 | 1010.5 |
| 20260501234429 | 52 | 166 | 0.0 | 0.0 | 0.00 | 0.00 | 0.00 | 51 | 1039.0 |
| 20260501233928 | 52 | 163 | 0.0 | 0.0 | 0.00 | 0.00 | 0.00 | 50 | 1039.1 |
| 20260501233502 | 53 | 164 | 0.0 | 0.0 | 0.00 | 0.00 | 0.00 | 49 | 1010.1 |
| 20260501233425 | 53 | 159 | 0.0 | 0.0 | 0.00 | 0.00 | 0.00 | 47 | 1039.0 |
| 20260501233003 | 53 | 154 | 0.0 | 0.0 | 0.00 | 0.00 | 0.00 | 46 | 1010.3 |
| 20260501232920 | 54 | 161 | 0.0 | 0.0 | 0.00 | 0.00 | 0.00 | 48 | 1039.0 |
| 20260501232502 | 54 | 154 | 0.0 | 0.0 | 0.00 | 0.00 | 0.00 | 47 | 1010.1 |
| 20260501232418 | 55 | 165 | 0.0 | 0.0 | 0.00 | 0.00 | 0.00 | 45 | 1039.0 |
| 20260501232003 | 55 | 164 | 0.0 | 0.0 | 0.00 | 0.00 | 0.00 | 41 | 1010.0 |
| 20260501231915 | 55 | 165 | 0.0 | 0.9 | 0.00 | 0.00 | 0.00 | 42 | 1038.7 |
| 20260501231503 | 55 | 162 | 0.9 | 1.7 | 0.00 | 0.00 | 0.00 | 42 | 1010.0 |
| 20260501231414 | 55 | 162 | 0.0 | 0.0 | 0.00 | 0.00 | 0.00 | 43 | 1038.5 |
| 20260501231002 | 56 | 179 | 0.0 | 0.0 | 0.00 | 0.00 | 0.00 | 40 | 1010.0 |
| 20260501230912 | 56 | 179 | 0.9 | 0.9 | 0.00 | 0.00 | 0.00 | 39 | 1038.4 |
| 20260501230503 | 56 | 159 | 0.9 | 1.7 | 0.00 | 0.00 | 0.00 | 45 | 1009.8 |
| 20260501230410 | 56 | 158 | 0.0 | 0.9 | 0.00 | 0.00 | 0.00 | 44 | 1038.4 |
| 20260501230003 | 56 | 243 | 0.0 | 0.0 | 0.00 | 0.00 | 0.00 | 42 | 1009.6 |
| 20260501225907 | 56 | 245 | 0.9 | 0.9 | 0.00 | 0.00 | 0.00 | 43 | 1038.4 |
| 20260501225503 | 57 | 78 | 0.0 | 0.0 | 0.00 | 0.00 | 0.00 | 39 | 1009.6 |
| 20260501225405 | 57 | 44 | 0.9 | 0.9 | 0.00 | 0.00 | 0.00 | 36 | 1038.3 |
| 20260501225003 | 57 | 133 | 0.0 | 0.0 | 0.00 | 0.00 | 0.00 | 38 | 1009.7 |
| 20260501224900 | 57 | 191 | 0.9 | 0.9 | 0.00 | 0.00 | 0.00 | 38 | 1038.1 |
| 20260501224358 | 56 | 181 | 0.9 | 0.9 | 0.00 | 0.00 | 0.00 | 40 | 1038.2 |
| 20260501224002 | 57 | 198 | 0.9 | 1.7 | 0.00 | 0.00 | 0.00 | 42 | 1009.6 |
| 20260501223854 | 57 | 187 | 0.9 | 0.9 | 0.00 | 0.00 | 0.00 | 42 | 1038.4 |
| 20260501223503 | 57 | 144 | 0.0 | 0.0 | 0.00 | 0.00 | 0.00 | 38 | 1009.6 |
| 20260501223350 | 57 | 166 | 0.0 | 0.0 | 0.00 | 0.00 | 0.00 | 39 | 1038.3 |
| 20260501223002 | 58 | 200 | 0.0 | 0.0 | 0.00 | 0.00 | 0.00 | 37 | 1009.7 |
| 20260501222846 | 58 | 223 | 0.9 | 0.9 | 0.00 | 0.00 | 0.00 | 35 | 1038.3 |
| 20260501222503 | 58 | 207 | 1.7 | 2.6 | 0.00 | 0.00 | 0.00 | 37 | 1009.6 |
| 20260501222344 | 58 | 219 | 1.7 | 4.3 | 0.00 | 0.00 | 0.00 | 37 | 1038.2 |
| 20260501222003 | 58 | 178 | 1.7 | 3.5 | 0.00 | 0.00 | 0.00 | 36 | 1009.6 |
| 20260501221840 | 59 | 207 | 2.6 | 2.6 | 0.00 | 0.00 | 0.00 | 38 | 1038.5 |
| 20260501221502 | 59 | 190 | 0.9 | 1.7 | 0.00 | 0.00 | 0.00 | 37 | 1009.7 |
| 20260501221337 | 59 | 181 | 0.0 | 0.9 | 0.00 | 0.00 | 0.00 | 38 | 1038.4 |
| 20260501220836 | 59 | 353 | 2.6 | 2.6 | 0.00 | 0.00 | 0.00 | 35 | 1038.3 |
| 20260501220502 | 59 | 203 | 1.7 | 2.6 | 0.00 | 0.00 | 0.00 | 40 | 1009.5 |
| 20260501220333 | 59 | 125 | 0.0 | 0.0 | 0.00 | 0.00 | 0.00 | 36 | 1038.4 |
| 20260501215829 | 59 | 221 | 0.9 | 0.9 | 0.00 | 0.00 | 0.00 | 36 | 1038.2 |
| 20260501215326 | 59 | 125 | 0.0 | 0.0 | 0.00 | 0.00 | 0.00 | 35 | 1038.1 |
| 20260501214821 | 59 | 53 | 0.9 | 1.7 | 0.00 | 0.00 | 0.00 | 34 | 1038.1 |
| 20260501214502 | 59 | 180 | 0.9 | 1.7 | 0.00 | 0.00 | 0.00 | 37 | 1009.5 |
| 20260501214317 | 60 | 315 | 1.7 | 1.7 | 0.00 | 0.00 | 0.00 | 34 | 1038.2 |
| 20260501214003 | 59 | 111 | 0.9 | 1.7 | 0.00 | 0.00 | 0.00 | 35 | 1009.5 |
| 20260501213813 | 59 | 121 | 0.9 | 1.7 | 0.00 | 0.00 | 0.00 | 35 | 1038.3 |
| 20260501213502 | 59 | 196 | 1.7 | 2.6 | 0.00 | 0.00 | 0.00 | 35 | 1009.4 |
| 20260501213309 | 59 | 228 | 0.9 | 1.7 | 0.00 | 0.00 | 0.00 | 35 | 1038.3 |
| 20260501213003 | 59 | 339 | 2.6 | 2.6 | 0.00 | 0.00 | 0.00 | 35 | 1009.3 |
| 20260501212805 | 59 | 146 | 0.0 | 0.0 | 0.00 | 0.00 | 0.00 | 35 | 1038.1 |
| 20260501212305 | 59 | 170 | 0.0 | 0.9 | 0.00 | 0.00 | 0.00 | 33 | 1038.0 |
| 20260501212003 | 59 | 202 | 0.9 | 1.7 | 0.00 | 0.00 | 0.00 | 36 | 1009.2 |
| 20260501211759 | 59 | 24 | 2.6 | 5.2 | 0.00 | 0.00 | 0.00 | 33 | 1038.0 |
| 20260501211502 | 59 | 211 | 1.7 | 2.6 | 0.00 | 0.00 | 0.00 | 34 | 1009.1 |
| 20260501211257 | 59 | 176 | 0.9 | 0.9 | 0.00 | 0.00 | 0.00 | 34 | 1037.8 |
| 20260501211002 | 59 | 189 | 1.7 | 2.6 | 0.00 | 0.00 | 0.00 | 36 | 1009.4 |
| 20260501210753 | 60 | 225 | 0.9 | 0.9 | 0.00 | 0.00 | 0.00 | 33 | 1037.9 |
| 20260501210503 | 60 | 210 | 0.9 | 1.7 | 0.00 | 0.00 | 0.00 | 34 | 1009.2 |
| 20260501210250 | 60 | 181 | 1.7 | 1.7 | 0.00 | 0.00 | 0.00 | 34 | 1038.0 |
| 20260501205746 | 59 | 179 | 1.7 | 1.7 | 0.00 | 0.00 | 0.00 | 34 | 1038.0 |
| 20260501205243 | 59 | 22 | 2.6 | 2.6 | 0.00 | 0.00 | 0.00 | 34 | 1037.8 |
| 20260501205003 | 59 | 173 | 2.6 | 3.5 | 0.00 | 0.00 | 0.00 | 34 | 1009.2 |
| 20260501204740 | 59 | 1 | 0.9 | 1.7 | 0.00 | 0.00 | 0.00 | 34 | 1038.1 |
| 20260501204503 | 59 | 42 | 3.5 | 5.2 | 0.00 | 0.00 | 0.00 | 33 | 1009.1 |
| 20260501204237 | 60 | 219 | 1.7 | 1.7 | 0.00 | 0.00 | 0.00 | 34 | 1037.8 |
| 20260501203733 | 60 | 212 | 1.7 | 2.6 | 0.00 | 0.00 | 0.00 | 33 | 1037.9 |
| 20260501203231 | 60 | 230 | 2.6 | 4.3 | 0.00 | 0.00 | 0.00 | 33 | 1038.0 |
| 20260501203003 | 60 | 187 | 2.6 | 3.5 | 0.00 | 0.00 | 0.00 | 32 | 1008.9 |
| 20260501202727 | 60 | 239 | 1.7 | 2.6 | 0.00 | 0.00 | 0.00 | 31 | 1037.8 |
| 20260501202502 | 60 | 194 | 0.9 | 1.7 | 0.00 | 0.00 | 0.00 | 31 | 1009.1 |
| 20260501202224 | 60 | 217 | 0.9 | 0.9 | 0.00 | 0.00 | 0.00 | 33 | 1037.5 |
| 20260501202003 | 59 | 187 | 2.6 | 3.5 | 0.00 | 0.00 | 0.00 | 33 | 1009.0 |
| 20260501201721 | 59 | 237 | 0.9 | 0.9 | 0.00 | 0.00 | 0.00 | 35 | 1037.7 |
| 20260501201503 | 60 | 226 | 1.7 | 1.7 | 0.00 | 0.00 | 0.00 | 33 | 1009.0 |
| 20260501201218 | 62 | 248 | 3.5 | 4.3 | 0.00 | 0.00 | 0.00 | 31 | 1037.8 |
| 20260501201002 | 62 | 176 | 1.7 | 3.5 | 0.00 | 0.00 | 0.00 | 31 | 1009.1 |
| 20260501200715 | 61 | 266 | 1.7 | 4.3 | 0.00 | 0.00 | 0.00 | 35 | 1037.8 |
| 20260501200503 | 61 | 217 | 1.7 | 2.6 | 0.00 | 0.00 | 0.00 | 32 | 1009.0 |
| 20260501200212 | 61 | 234 | 3.5 | 5.2 | 0.00 | 0.00 | 0.00 | 31 | 1037.8 |
| 20260501200002 | 61 | 108 | 1.7 | 2.6 | 0.00 | 0.00 | 0.00 | 33 | 1009.0 |
| 20260501195709 | 62 | 299 | 3.5 | 4.3 | 0.00 | 0.00 | 0.00 | 30 | 1037.8 |
| 20260501195205 | 61 | 211 | 0.9 | 1.7 | 0.00 | 0.00 | 0.00 | 32 | 1037.7 |
| 20260501195003 | 61 | 58 | 1.7 | 3.5 | 0.00 | 0.00 | 0.00 | 38 | 1009.0 |
| 20260501194701 | 60 | 295 | 3.5 | 5.2 | 0.00 | 0.00 | 0.00 | 32 | 1037.8 |
| 20260501194502 | 60 | 226 | 6.1 | 7.8 | 0.00 | 0.00 | 0.00 | 32 | 1009.1 |
| 20260501194156 | 60 | 270 | 3.5 | 5.2 | 0.00 | 0.00 | 0.00 | 31 | 1037.6 |
| 20260501194002 | 60 | 97 | 3.5 | 4.3 | 0.00 | 0.00 | 0.00 | 32 | 1009.1 |
| 20260501193654 | 60 | 32 | 0.9 | 1.7 | 0.00 | 0.00 | 0.00 | 33 | 1037.8 |
| 20260501193503 | 61 | 317 | 5.2 | 6.1 | 0.00 | 0.00 | 0.00 | 31 | 1009.2 |
| 20260501193152 | 62 | 224 | 1.7 | 2.6 | 0.00 | 0.00 | 0.00 | 33 | 1037.8 |
| 20260501192649 | 61 | 38 | 3.5 | 5.2 | 0.00 | 0.00 | 0.00 | 30 | 1037.9 |
| 20260501192502 | 61 | 334 | 1.7 | 1.7 | 0.00 | 0.00 | 0.00 | 32 | 1009.1 |
| 20260501192147 | 60 | 235 | 1.7 | 1.7 | 0.00 | 0.00 | 0.00 | 31 | 1037.9 |
| 20260501191644 | 61 | 215 | 1.7 | 2.6 | 0.00 | 0.00 | 0.00 | 34 | 1037.8 |
| 20260501191503 | 61 | 215 | 2.6 | 3.5 | 0.00 | 0.00 | 0.00 | 34 | 1009.1 |